| time (UTC) | temp C | wind direction | speed KPH | gust KPH | rain 1hr cm | rain 24hr cm | rain mn cm | humidity % | barometer mb |
| 20260507105449 | 7 | 257 | 0.0 | 0.0 | 0.20 | 0.00 | 2.11 | 91 | 970.0 |
| 20260507103442 | 7 | 282 | 0.0 | 0.0 | 0.20 | 0.00 | 2.11 | 91 | 970.0 |
| 20260507102441 | 7 | 283 | 0.0 | 0.0 | 0.20 | 0.00 | 2.01 | 91 | 970.0 |
| 20260507100435 | 7 | 283 | 0.0 | 0.0 | 0.20 | 0.00 | 2.01 | 91 | 970.0 |
| 20260507094427 | 7 | 276 | 0.0 | 0.0 | 0.20 | 0.00 | 1.91 | 91 | 969.0 |
| 20260507093426 | 7 | 277 | 9.7 | 0.0 | 0.20 | 0.00 | 1.91 | 91 | 969.0 |
| 20260507093421 | 7 | 277 | 0.0 | 0.0 | 0.20 | 0.00 | 1.91 | 91 | 969.0 |
| 20260507092405 | 7 | 284 | 0.0 | 0.0 | 0.20 | 0.00 | 1.80 | 91 | 969.0 |
| 20260507091406 | 7 | 286 | 0.0 | 0.0 | 0.20 | 0.00 | 1.80 | 91 | 969.0 |
| 20260507090357 | 7 | 282 | 0.0 | 0.0 | 0.20 | 0.00 | 1.80 | 91 | 969.0 |
| 20260507085357 | 7 | 275 | 0.0 | 0.0 | 0.20 | 0.00 | 1.80 | 91 | 968.0 |
| 20260507084832 | 8 | 275 | 0.0 | 0.0 | 0.20 | 0.00 | 1.70 | 91 | 968.0 |
| 20260507084358 | 8 | 275 | 0.0 | 0.0 | 0.20 | 0.00 | 1.70 | 91 | 968.0 |
| 20260507083354 | 8 | 269 | 0.0 | 0.0 | 0.30 | 0.00 | 1.70 | 91 | 968.0 |
| 20260507082355 | 8 | 268 | 0.0 | 0.0 | 0.30 | 0.00 | 1.70 | 91 | 968.0 |
| 20260507081353 | 8 | 262 | 0.0 | 0.0 | 0.30 | 0.00 | 1.60 | 91 | 968.0 |
| 20260507080342 | 8 | 266 | 0.0 | 0.0 | 0.30 | 0.00 | 1.60 | 91 | 968.0 |
| 20260507074334 | 8 | 266 | 0.0 | 0.0 | 0.30 | 0.00 | 1.50 | 91 | 967.0 |
| 20260507073331 | 8 | 267 | 0.0 | 0.0 | 0.30 | 0.00 | 1.40 | 91 | 967.0 |
| 20260507072329 | 8 | 264 | 0.0 | 0.0 | 0.30 | 0.00 | 1.40 | 91 | 967.0 |
| 20260507071329 | 8 | 282 | 0.0 | 0.0 | 0.30 | 0.00 | 1.30 | 91 | 967.0 |
| 20260507065319 | 8 | 279 | 0.0 | 0.0 | 0.30 | 0.00 | 1.30 | 91 | 967.0 |
| 20260507064318 | 8 | 257 | 0.0 | 0.0 | 0.30 | 0.00 | 1.19 | 91 | 967.0 |
| 20260507063313 | 9 | 271 | 0.0 | 0.0 | 0.41 | 0.00 | 1.19 | 91 | 966.0 |
| 20260507062313 | 9 | 270 | 0.0 | 0.0 | 0.41 | 0.00 | 1.19 | 92 | 966.0 |
| 20260507061301 | 9 | 266 | 0.0 | 0.0 | 0.41 | 0.00 | 1.09 | 92 | 966.0 |
| 20260507060256 | 9 | 265 | 0.0 | 0.0 | 0.41 | 0.00 | 0.89 | 91 | 966.0 |
| 20260507055256 | 9 | 281 | 0.0 | 0.0 | 0.41 | 0.00 | 0.89 | 91 | 966.0 |
| 20260507054256 | 9 | 280 | 0.0 | 0.0 | 0.41 | 0.00 | 0.89 | 91 | 966.0 |
| 20260507053253 | 10 | 282 | 0.0 | 0.0 | 0.41 | 0.00 | 0.81 | 92 | 966.0 |
| 20260507052254 | 10 | 281 | 0.0 | 0.0 | 0.41 | 0.00 | 0.81 | 92 | 966.0 |
| 20260507051254 | 10 | 282 | 0.0 | 0.0 | 0.41 | 0.00 | 0.71 | 92 | 966.0 |
| 20260507050252 | 10 | 283 | 0.0 | 0.0 | 0.41 | 0.00 | 0.61 | 92 | 965.0 |
| 20260507045226 | 10 | 282 | 0.0 | 0.0 | 0.41 | 0.00 | 0.61 | 92 | 965.0 |
| 20260507044227 | 10 | 281 | 0.0 | 0.0 | 0.41 | 0.00 | 0.51 | 92 | 965.0 |
| 20260507043614 | 10 | 281 | 0.0 | 0.0 | 0.10 | 0.00 | 0.41 | 92 | 965.0 |
| 20260507043225 | 10 | 281 | 0.0 | 0.0 | 0.10 | 0.00 | 0.41 | 92 | 965.0 |
| 20260507042226 | 10 | 280 | 0.0 | 0.0 | 0.10 | 0.00 | 0.30 | 92 | 965.0 |
| 20260507041207 | 10 | 281 | 0.0 | 0.0 | 0.10 | 0.00 | 0.20 | 92 | 965.0 |
| 20260507040203 | 10 | 279 | 0.0 | 0.0 | 0.10 | 0.00 | 0.10 | 92 | 965.0 |
| 20260507035204 | 10 | 280 | 0.0 | 0.0 | 0.10 | 0.00 | 0.10 | 92 | 965.0 |
| 20260507034211 | 10 | 279 | 0.0 | 0.0 | 0.10 | 0.00 | 0.10 | 92 | 965.0 |
| 20260507034205 | 10 | 279 | 0.0 | 0.0 | 0.10 | 0.00 | 0.10 | 92 | 965.0 |
| 20260507032203 | 10 | 279 | 0.0 | 0.0 | 0.00 | 0.00 | 0.00 | 92 | 964.0 |
| 20260507030201 | 11 | 279 | 0.0 | 0.0 | 0.00 | 0.00 | 0.00 | 91 | 964.0 |
| 20260507025202 | 11 | 279 | 0.0 | 0.0 | 0.00 | 0.00 | 0.00 | 91 | 964.0 |
| 20260507024204 | 11 | 280 | 0.0 | 0.0 | 0.00 | 0.00 | 0.00 | 91 | 964.0 |
| 20260507024159 | 11 | 280 | 0.0 | 0.0 | 0.00 | 0.00 | 0.00 | 91 | 964.0 |
| 20260507023137 | 11 | 282 | 0.0 | 0.0 | 0.00 | 0.00 | 0.00 | 90 | 964.0 |
| 20260507021136 | 11 | 282 | 0.0 | 0.0 | 0.00 | 0.00 | 0.00 | 90 | 964.0 |
| 20260507020138 | 11 | 279 | 0.0 | 0.0 | 0.00 | 0.00 | 0.00 | ||
| 20260507020133 | 11 | 279 | 0.0 | 0.0 | 0.00 | 0.00 | 0.00 | 89 | 964.0 |
| 20260507015139 | 11 | 0.0 | 0.0 | 0.00 | 0.00 | 0.00 | 89 | 964.0 | |
| 20260507015134 | 11 | 279 | 0.0 | 0.0 | 0.00 | 0.00 | 0.00 | 89 | 964.0 |
| 20260507014135 | 11 | 280 | 0.0 | 0.0 | 0.00 | 0.00 | 0.00 | 89 | 964.0 |
| 20260507013131 | 11 | 280 | 0.0 | 0.0 | 0.00 | 0.00 | 0.00 | 89 | 964.0 |
| 20260507012105 | 12 | 282 | 0.0 | 0.0 | 0.00 | 0.00 | 0.00 | 89 | 964.0 |
| 20260507011105 | 11 | 282 | 0.0 | 0.0 | 0.00 | 0.00 | 0.00 | 89 | 964.0 |
| 20260507010050 | 12 | 279 | 0.0 | 0.0 | 0.00 | 0.00 | 0.00 | 89 | 964.0 |
| 20260507005051 | 12 | 281 | 0.0 | 0.0 | 0.00 | 0.00 | 0.00 | 88 | 964.0 |
| 20260507004052 | 11 | 280 | 0.0 | 0.0 | 0.00 | 0.00 | 0.00 | 88 | 964.0 |
| 20260507003050 | 12 | 280 | 0.0 | 0.0 | 0.00 | 0.00 | 0.00 | 88 | 964.0 |
| 20260507002138 | 12 | 279 | 0.0 | 0.0 | 0.00 | 0.00 | 0.00 | 87 | 964.0 |
| 20260507002055 | 12 | 279 | 0.0 | 0.0 | 0.00 | 0.00 | 0.00 | 87 | 964.0 |
| 20260507002050 | 12 | 279 | 0.0 | 0.0 | 0.00 | 0.00 | 0.00 | 87 | 964.0 |
| 20260507001057 | 12 | 278 | 0.0 | 0.0 | 0.00 | 0.00 | 0.00 | 87 | 964.0 |
| 20260507001051 | 12 | 278 | 0.0 | 0.0 | 0.00 | 0.00 | 0.00 | 87 | 964.0 |
| 20260507000049 | 12 | 277 | 0.0 | 0.0 | 0.00 | 0.00 | 0.00 | 87 | 964.0 |
| 20260506235050 | 12 | 276 | 0.0 | 0.0 | 0.00 | 0.00 | 0.00 | 86 | 964.0 |
| 20260506233912 | 12 | 277 | 0.0 | 0.0 | 0.00 | 1.09 | 0.10 | 86 | 964.0 |
| 20260506232854 | 12 | 275 | 0.0 | 0.0 | 0.00 | 1.09 | 0.10 | 86 | 964.0 |
| 20260506231831 | 12 | 273 | 0.0 | 0.0 | 0.00 | 1.09 | 0.10 | 86 | 964.0 |
| 20260506230833 | 12 | 274 | 0.0 | 0.0 | 0.00 | 0.00 | 0.10 | 86 | 964.0 |
| 20260506230828 | 12 | 274 | 0.0 | 0.0 | 0.00 | 1.09 | 0.10 | 86 | 964.0 |
| 20260506225826 | 12 | 275 | 0.0 | 0.0 | 0.00 | 1.09 | 0.10 | 86 | 964.0 |
| 20260506223829 | 12 | 282 | 0.0 | 0.0 | 0.00 | 1.09 | 0.10 | 84 | 96.4 |
| 20260506223825 | 12 | 282 | 0.0 | 0.0 | 0.00 | 1.09 | 0.10 | 84 | 964.0 |
| 20260506222820 | 12 | 284 | 0.0 | 0.0 | 0.00 | 1.09 | 0.10 | 84 | 964.0 |
| 20260506221815 | 12 | 282 | 0.0 | 0.0 | 0.00 | 1.09 | 0.10 | 84 | 964.0 |
| 20260506220816 | 12 | 283 | 0.0 | 0.0 | 0.00 | 1.09 | 0.10 | 84 | 964.0 |
| 20260506214815 | 12 | 285 | 0.0 | 0.0 | 0.00 | 1.09 | 0.10 | 84 | 964.0 |
| 20260506211909 | 12 | 283 | 0.0 | 0.0 | 0.00 | 1.09 | 0.10 | 83 | 964.0 |
| 20260506211804 | 12 | 283 | 0.0 | 0.0 | 0.00 | 1.09 | 0.10 | 83 | 964.0 |
| 20260506205754 | 12 | 285 | 0.0 | 0.0 | 0.00 | 1.09 | 0.10 | 83 | 963.0 |
| 20260506204755 | 13 | 283 | 0.0 | 0.0 | 0.00 | 1.09 | 0.10 | 83 | 963.0 |
| 20260506203756 | 13 | 284 | 0.0 | 0.0 | 0.00 | 1.09 | 0.10 | 83 | 964.0 |
| 20260506202801 | 13 | 283 | 0.0 | 0.0 | 0.00 | 0.00 | 0.10 | 83 | 964.0 |
| 20260506202754 | 13 | 283 | 0.0 | 0.0 | 0.00 | 1.09 | 0.10 | 83 | 964.0 |
| 20260506201754 | 13 | 283 | 0.0 | 0.0 | 0.00 | 1.09 | 0.10 | 84 | 963.0 |
| 20260506200754 | 13 | 286 | 0.0 | 0.0 | 0.00 | 1.09 | 0.10 | 83 | 963.0 |
| 20260506195748 | 13 | 287 | 0.0 | 0.0 | 0.00 | 1.09 | 0.10 | 82 | 963.0 |
| 20260506192739 | 13 | 285 | 0.0 | 0.0 | 0.00 | 1.09 | 0.10 | 81 | 963.0 |
| 20260506191730 | 13 | 289 | 0.0 | 0.0 | 0.00 | 1.09 | 0.10 | 80 | 963.0 |
| 20260506190731 | 13 | 290 | 0.0 | 0.0 | 0.00 | 1.09 | 0.10 | 80 | 963.0 |
| 20260506185727 | 13 | 289 | 0.0 | 0.0 | 0.00 | 1.09 | 0.10 | 81 | 963.0 |
| 20260506184723 | 13 | 289 | 0.0 | 0.0 | 0.00 | 1.09 | 0.10 | 81 | 962.0 |
| 20260506183709 | 13 | 293 | 0.0 | 0.0 | 0.00 | 1.09 | 0.10 | 79 | 962.0 |
| 20260506182709 | 13 | 293 | 0.0 | 0.0 | 0.00 | 1.09 | 0.10 | 76 | 962.0 |
| 20260506182704 | 13 | 293 | 0.0 | 0.0 | 0.00 | 1.09 | 0.10 | 76 | 962.0 |
| 20260506181705 | 13 | 295 | 0.0 | 0.0 | 0.00 | 1.09 | 0.10 | 75 | 962.0 |
| 20260506180705 | 13 | 298 | 0.0 | 0.0 | 0.00 | 1.09 | 0.10 | 74 | 962.0 |
| 20260506175656 | 13 | 295 | 0.0 | 0.0 | 0.00 | 1.09 | 0.10 | 72 | 962.0 |
| 20260506174656 | 13 | 294 | 0.0 | 0.0 | 0.00 | 1.09 | 0.10 | 71 | 962.0 |
| 20260506173637 | 13 | 296 | 0.0 | 0.0 | 0.00 | 1.09 | 0.10 | 70 | 962.0 |
| 20260506172626 | 14 | 296 | 0.0 | 0.0 | 0.00 | 1.09 | 0.10 | 72 | 962.0 |
| 20260506171626 | 15 | 294 | 0.0 | 0.0 | 0.00 | 1.09 | 0.10 | 73 | 962.0 |
| 20260506170624 | 15 | 294 | 0.0 | 0.0 | 0.00 | 1.09 | 0.10 | 73 | 962.0 |
| 20260506165622 | 15 | 294 | 0.0 | 0.0 | 0.00 | 1.09 | 0.10 | 72 | 962.0 |
| 20260506164623 | 16 | 294 | 0.0 | 0.0 | 0.00 | 1.09 | 0.10 | 71 | 962.0 |
| 20260506163557 | 16 | 297 | 0.0 | 0.0 | 0.00 | 1.09 | 0.10 | 69 | 961.0 |
| 20260506162705 | 16 | 295 | 0.0 | 0.0 | 0.00 | 1.09 | 0.10 | 68 | 961.0 |
| 20260506162550 | 16 | 295 | 0.0 | 0.0 | 0.00 | 1.09 | 0.10 | 68 | 961.0 |
| 20260506161550 | 16 | 295 | 0.0 | 0.0 | 0.00 | 1.09 | 0.10 | 67 | 961.0 |
| 20260506160551 | 17 | 297 | 0.0 | 0.0 | 0.00 | 1.09 | 0.10 | 65 | 961.0 |
| 20260506155638 | 17 | 299 | 0.0 | 0.0 | 0.00 | 1.09 | 0.10 | 64 | 961.0 |
| 20260506155544 | 17 | 299 | 0.0 | 0.0 | 0.00 | 1.09 | 0.10 | 64 | 961.0 |
| 20260506154545 | 17 | 298 | 0.0 | 0.0 | 0.00 | 1.09 | 0.10 | 57 | 961.0 |
| 20260506153535 | 18 | 305 | 0.0 | 0.0 | 0.00 | 1.09 | 0.10 | 55 | 962.0 |
| 20260506152534 | 18 | 299 | 0.0 | 0.0 | 0.00 | 1.09 | 0.10 | 54 | 961.0 |
| 20260506151521 | 18 | 297 | 0.0 | 0.0 | 0.00 | 1.09 | 0.10 | 50 | 961.0 |
| 20260506150522 | 18 | 298 | 0.0 | 0.0 | 0.00 | 1.09 | 0.10 | 50 | 962.0 |
| 20260506145518 | 18 | 300 | 0.0 | 0.0 | 0.00 | 1.09 | 0.10 | 50 | 961.0 |
| 20260506144519 | 18 | 297 | 0.0 | 0.0 | 0.00 | 1.09 | 0.10 | 51 | 961.0 |
| 20260506143519 | 18 | 298 | 0.0 | 0.0 | 0.00 | 1.09 | 0.10 | 50 | 962.0 |
| 20260506142516 | 18 | 299 | 0.0 | 0.0 | 0.00 | 1.09 | 0.10 | 51 | 962.0 |
| 20260506141517 | 18 | 297 | 0.0 | 0.0 | 0.00 | 1.09 | 0.10 | 52 | 962.0 |
| 20260506140518 | 18 | 295 | 0.0 | 0.0 | 0.00 | 1.09 | 0.10 | 52 | 962.0 |
| 20260506135506 | 18 | 295 | 0.0 | 0.0 | 0.00 | 1.09 | 0.10 | 52 | 962.0 |
| 20260506133458 | 17 | 282 | 0.0 | 0.0 | 0.00 | 1.09 | 0.10 | 51 | 962.0 |
| 20260506131432 | 18 | 283 | 0.0 | 0.0 | 0.00 | 1.09 | 0.10 | 50 | 962.0 |
| 20260506130423 | 18 | 280 | 0.0 | 0.0 | 0.00 | 1.09 | 0.10 | 50 | 962.0 |
| 20260506124412 | 18 | 281 | 0.0 | 0.0 | 0.00 | 1.09 | 0.10 | 47 | 962.0 |
| 20260506123413 | 19 | 282 | 0.0 | 0.0 | 0.00 | 1.09 | 0.10 | 44 | 962.0 |
| 20260506122410 | 20 | 284 | 0.0 | 0.0 | 0.00 | 1.09 | 0.10 | 43 | 962.0 |
| 20260506121409 | 21 | 283 | 0.0 | 0.0 | 0.00 | 1.09 | 0.10 | 45 | 962.0 |
| 20260506120410 | 21 | 286 | 0.0 | 0.0 | 0.00 | 1.09 | 0.10 | 45 | 962.0 |
| 20260506114409 | 21 | 284 | 0.0 | 0.0 | 0.00 | 1.09 | 0.10 | 46 | 962.0 |
| 20260506113409 | 21 | 291 | 0.0 | 0.0 | 0.00 | 1.09 | 0.10 | 47 | 962.0 |
| 20260506112407 | 22 | 294 | 0.0 | 0.0 | 0.00 | 1.09 | 0.10 | 48 | 962.0 |
| 20260506111405 | 21 | 308 | 0.0 | 0.0 | 0.00 | 1.09 | 0.10 | 55 | 962.0 |
| 20260506110406 | 21 | 331 | 0.0 | 0.0 | 0.00 | 1.09 | 0.10 | 57 | 962.0 |